TAM8194 SBGR-KMIA

Flight info

Callsign TAM8194
Flight time 7h 55m
Altitude 34000
Route GERTU UL304 OPNUS UM417 KONKI UL304 BRUTI UM417 GIKVI/N0486F360 UM417 ISUNU UM409 VUMPI UL795 ONDER/N0480F380 UL795 ALTIB UM779 ZEUSS VIICE2
Aircraft B77W/H-SDE1E2E3FGHIJ2J3J4J5M1RWXY/LB1D1

Departure

Time 2026-05-05 14:17
Airport São Paulo/Guarulhos–Governor André Franco Montoro International Airport (SBGR)

Arrival

Time 2026-05-05 22:13
Airport Miami International Airport (KMIA)
Time Latitude Longitude Altitude Speed Heading
2026-05-05 13:46 -23.42504 -46.47334 2450 ft 0 kts 253°
2026-05-05 14:06 -23.42501 -46.47324 2450 ft 2 kts 253°
2026-05-05 14:07 -23.42497 -46.47308 2450 ft 2 kts 253°
2026-05-05 14:07 -23.42493 -46.47293 2449 ft 2 kts 253°
2026-05-05 14:07 -23.42490 -46.47283 2449 ft 2 kts 253°
2026-05-05 14:07 -23.42484 -46.47268 2449 ft 2 kts 231°
2026-05-05 14:08 -23.42474 -46.47257 2449 ft 2 kts 212°
2026-05-05 14:08 -23.42460 -46.47250 2449 ft 2 kts 193°
2026-05-05 14:08 -23.42445 -46.47248 2449 ft 2 kts 174°
2026-05-05 14:08 -23.42436 -46.47250 2449 ft 0 kts 162°
2026-05-05 14:09 -23.42433 -46.47251 2449 ft 0 kts 162°
2026-05-05 14:11 -23.42472 -46.47239 2450 ft 10 kts 163°
2026-05-05 14:11 -23.42576 -46.47206 2451 ft 19 kts 163°
2026-05-05 14:12 -23.42733 -46.47158 2453 ft 23 kts 165°
2026-05-05 14:12 -23.42852 -46.47118 2455 ft 12 kts 163°
2026-05-05 14:12 -23.42918 -46.47120 2456 ft 8 kts 222°
2026-05-05 14:12 -23.42942 -46.47167 2456 ft 6 kts 247°
2026-05-05 14:13 -23.42952 -46.47205 2457 ft 4 kts 253°
2026-05-05 14:13 -23.42963 -46.47243 2457 ft 6 kts 253°
2026-05-05 14:13 -23.42979 -46.47302 2458 ft 9 kts 253°
2026-05-05 14:13 -23.43003 -46.47393 2457 ft 16 kts 254°
2026-05-05 14:14 -23.43041 -46.47538 2458 ft 22 kts 254°
2026-05-05 14:14 -23.43089 -46.47726 2459 ft 28 kts 254°
2026-05-05 14:14 -23.43141 -46.47919 2459 ft 20 kts 256°
2026-05-05 14:14 -23.43180 -46.48043 2459 ft 12 kts 251°
2026-05-05 14:15 -23.43205 -46.48131 2459 ft 11 kts 254°
2026-05-05 14:15 -23.43226 -46.48209 2458 ft 10 kts 255°
2026-05-05 14:15 -23.43247 -46.48293 2458 ft 12 kts 253°
2026-05-05 14:15 -23.43299 -46.48358 2458 ft 12 kts 179°
2026-05-05 14:16 -23.43370 -46.48342 2459 ft 10 kts 166°
2026-05-05 14:16 -23.43412 -46.48297 2460 ft 9 kts 94°
2026-05-05 14:16 -23.43409 -46.48262 2461 ft 0 kts 72°
2026-05-05 14:16 -23.43370 -46.48117 2462 ft 52 kts 73°
2026-05-05 14:17 -23.43202 -46.47498 2463 ft 118 kts 73°
2026-05-05 14:17 -23.42910 -46.46410 2460 ft 176 kts 73°
2026-05-05 14:17 -23.42541 -46.45039 2775 ft 200 kts 73°
2026-05-05 14:17 -23.42102 -46.43592 3537 ft 204 kts 61°
2026-05-05 14:18 -23.41226 -46.42377 4107 ft 212 kts 40°
2026-05-05 14:18 -23.39935 -46.41452 4488 ft 231 kts 31°
2026-05-05 14:18 -23.38482 -46.40535 4977 ft 247 kts 30°
2026-05-05 14:18 -23.37035 -46.39426 5437 ft 265 kts 43°
2026-05-05 14:19 -23.35714 -46.37989 6129 ft 273 kts 46°
2026-05-05 14:19 -23.34378 -46.36482 6910 ft 278 kts 46°
2026-05-05 14:19 -23.33032 -46.34977 7665 ft 282 kts 46°
2026-05-05 14:19 -23.31652 -46.33441 8378 ft 286 kts 45°
2026-05-05 14:20 -23.30258 -46.31893 9057 ft 290 kts 45°
2026-05-05 14:20 -23.28847 -46.30326 9719 ft 295 kts 45°
2026-05-05 14:20 -23.27405 -46.28726 10408 ft 299 kts 45°
2026-05-05 14:20 -23.25924 -46.27083 10880 ft 312 kts 45°
2026-05-05 14:21 -23.24346 -46.25333 11258 ft 329 kts 45°
2026-05-05 14:21 -23.22708 -46.23518 11652 ft 345 kts 45°
2026-05-05 14:21 -23.20990 -46.21614 12074 ft 360 kts 45°
2026-05-05 14:21 -23.19169 -46.19669 12508 ft 375 kts 41°
2026-05-05 14:22 -23.17027 -46.17974 12963 ft 388 kts 30°
2026-05-05 14:22 -23.14562 -46.16695 13574 ft 396 kts 20°
2026-05-05 14:22 -23.11858 -46.15918 14257 ft 401 kts
2026-05-05 14:22 -23.09072 -46.15699 14914 ft 406 kts 358°
2026-05-05 14:23 -23.06258 -46.16040 15555 ft 410 kts 347°
2026-05-05 14:23 -23.03517 -46.16942 16186 ft 414 kts 336°
2026-05-05 14:23 -23.00958 -46.18389 16821 ft 417 kts 325°
2026-05-05 14:23 -22.98680 -46.20333 17442 ft 419 kts 315°
2026-05-05 14:24 -22.96632 -46.22585 18074 ft 422 kts 312°
2026-05-05 14:24 -22.94582 -46.24869 18702 ft 426 kts 313°
2026-05-05 14:24 -22.92468 -46.27187 19303 ft 430 kts 313°
2026-05-05 14:24 -22.90479 -46.29611 19858 ft 433 kts 304°
2026-05-05 14:25 -22.88884 -46.32394 20408 ft 435 kts 295°
2026-05-05 14:25 -22.87552 -46.35335 20971 ft 438 kts 293°
2026-05-05 14:25 -22.86233 -46.38314 21515 ft 442 kts 293°
2026-05-05 14:25 -22.84908 -46.41305 22041 ft 446 kts 293°
2026-05-05 14:26 -22.83549 -46.44364 22564 ft 449 kts 293°
2026-05-05 14:26 -22.82193 -46.47414 23072 ft 453 kts 293°
2026-05-05 14:26 -22.80822 -46.50491 23577 ft 457 kts 292°
2026-05-05 14:26 -22.79438 -46.53594 24082 ft 460 kts 292°
2026-05-05 14:27 -22.78047 -46.56710 24576 ft 464 kts 292°
2026-05-05 14:27 -22.76625 -46.59892 25078 ft 467 kts 292°
2026-05-05 14:27 -22.75225 -46.63023 25625 ft 470 kts 292°
2026-05-05 14:27 -22.73793 -46.66221 26204 ft 472 kts 293°
2026-05-05 14:28 -22.72360 -46.69421 26778 ft 473 kts 292°
2026-05-05 14:28 -22.70924 -46.72625 27344 ft 475 kts 292°
2026-05-05 14:28 -22.69461 -46.75887 27902 ft 478 kts 292°
2026-05-05 14:28 -22.68024 -46.79089 28455 ft 480 kts 292°
2026-05-05 14:29 -22.66546 -46.82380 29043 ft 483 kts 292°
2026-05-05 14:29 -22.65079 -46.85634 29629 ft 485 kts 292°
2026-05-05 14:29 -22.63605 -46.88897 30304 ft 484 kts 292°
2026-05-05 14:29 -22.62140 -46.92138 31102 ft 479 kts 292°
2026-05-05 14:30 -22.60692 -46.95341 31888 ft 474 kts 292°
2026-05-05 14:30 -22.59261 -46.98516 32595 ft 471 kts 292°
2026-05-05 14:30 -22.57818 -47.01718 33278 ft 468 kts 292°
2026-05-05 14:30 -22.56416 -47.04827 33919 ft 466 kts 292°
2026-05-05 14:31 -22.55102 -47.08055 34361 ft 465 kts 285°
2026-05-05 14:31 -22.54172 -47.11378 34396 ft 465 kts 281°
2026-05-05 14:31 -22.52532 -47.18033 34336 ft 451 kts 281°
2026-05-05 14:32 -22.50930 -47.24533 34300 ft 450 kts 280°
2026-05-05 14:32 -22.49308 -47.31076 34236 ft 451 kts 281°
2026-05-05 14:33 -22.47684 -47.37600 34241 ft 452 kts 281°
2026-05-05 14:33 -22.46043 -47.44172 34260 ft 451 kts 281°
2026-05-05 14:34 -22.44272 -47.50656 34264 ft 455 kts 287°
2026-05-05 14:34 -22.41039 -47.56607 34266 ft 467 kts 304°
2026-05-05 14:35 -22.36198 -47.61361 34273 ft 478 kts 319°
2026-05-05 14:35 -22.30714 -47.65474 34258 ft 479 kts 320°
2026-05-05 14:36 -22.25220 -47.69574 34245 ft 479 kts 320°
2026-05-05 14:36 -22.19711 -47.73683 34248 ft 479 kts 320°
2026-05-05 14:37 -22.14237 -47.77764 34254 ft 479 kts 320°
2026-05-05 14:37 -22.08754 -47.81850 34256 ft 479 kts 320°
2026-05-05 14:38 -22.03264 -47.85938 34255 ft 479 kts 320°
2026-05-05 14:38 -21.97773 -47.90022 34251 ft 479 kts 320°
2026-05-05 14:39 -21.92247 -47.94129 34243 ft 479 kts 320°
2026-05-05 14:39 -21.86729 -47.98226 34222 ft 479 kts 320°
2026-05-05 14:40 -21.81250 -48.02290 34205 ft 479 kts 320°
2026-05-05 14:40 -21.75766 -48.06405 34210 ft 479 kts 319°
2026-05-05 14:41 -21.70365 -48.10539 34225 ft 479 kts 319°
2026-05-05 14:41 -21.64909 -48.14706 34228 ft 479 kts 319°
2026-05-05 14:42 -21.59487 -48.18841 34226 ft 479 kts 319°
2026-05-05 14:42 -21.54064 -48.22971 34226 ft 479 kts 319°
2026-05-05 14:43 -21.48608 -48.27121 34227 ft 479 kts 319°
2026-05-05 14:43 -21.43173 -48.31253 34232 ft 478 kts 319°
2026-05-05 14:44 -21.37736 -48.35380 34240 ft 478 kts 319°
2026-05-05 14:44 -21.32314 -48.39492 34243 ft 478 kts 319°
2026-05-05 14:45 -21.26854 -48.43629 34245 ft 478 kts 319°
2026-05-05 14:45 -21.21433 -48.47732 34247 ft 478 kts 319°
2026-05-05 14:46 -21.16004 -48.51838 34247 ft 478 kts 319°
2026-05-05 14:46 -21.10528 -48.55976 34245 ft 479 kts 319°
2026-05-05 14:47 -21.05102 -48.60072 34244 ft 479 kts 319°
2026-05-05 14:47 -20.99659 -48.64177 34241 ft 478 kts 319°
2026-05-05 14:48 -20.94209 -48.68284 34247 ft 478 kts 319°
2026-05-05 14:48 -20.88752 -48.72393 34242 ft 479 kts 319°
2026-05-05 14:49 -20.83299 -48.76495 34237 ft 479 kts 319°
2026-05-05 14:49 -20.77817 -48.80615 34236 ft 479 kts 319°
2026-05-05 14:50 -20.72381 -48.84696 34235 ft 479 kts 319°
2026-05-05 14:50 -20.66902 -48.88805 34234 ft 479 kts 319°
2026-05-05 14:51 -20.61453 -48.92889 34232 ft 479 kts 319°
2026-05-05 14:51 -20.55959 -48.97001 34230 ft 480 kts 319°
2026-05-05 14:52 -20.50516 -49.01073 34229 ft 480 kts 319°
2026-05-05 14:52 -20.45037 -49.05168 34233 ft 480 kts 319°
2026-05-05 14:53 -20.39587 -49.09237 34239 ft 480 kts 319°
2026-05-05 14:53 -20.34114 -49.13320 34240 ft 480 kts 319°
2026-05-05 14:54 -20.28620 -49.17415 34239 ft 481 kts 319°
2026-05-05 14:54 -20.23148 -49.21490 34239 ft 481 kts 319°
2026-05-05 14:55 -20.17664 -49.25570 34239 ft 481 kts 319°
2026-05-05 14:55 -20.12172 -49.29653 34239 ft 482 kts 318°
2026-05-05 14:56 -20.06640 -49.33762 34239 ft 482 kts 318°
2026-05-05 14:56 -20.01150 -49.37836 34239 ft 482 kts 318°
2026-05-05 14:57 -19.95658 -49.41909 34236 ft 482 kts 318°
2026-05-05 14:57 -19.90121 -49.46011 34231 ft 484 kts 318°
2026-05-05 14:58 -19.84568 -49.50121 34221 ft 485 kts 318°
2026-05-05 14:58 -19.79038 -49.54211 34224 ft 485 kts 318°
2026-05-05 14:59 -19.73512 -49.58294 34224 ft 485 kts 318°
2026-05-05 14:59 -19.67959 -49.62393 34229 ft 485 kts 318°
2026-05-05 15:00 -19.63327 -49.65810 34240 ft 485 kts 318°
2026-05-05 15:00 -19.56829 -49.70599 34252 ft 485 kts 318°
2026-05-05 15:01 -19.51302 -49.74670 34256 ft 485 kts 318°
2026-05-05 15:01 -19.45753 -49.78753 34259 ft 485 kts 318°
2026-05-05 15:02 -19.40209 -49.82828 34262 ft 485 kts 318°
2026-05-05 15:02 -19.34662 -49.86901 34264 ft 485 kts 318°
2026-05-05 15:03 -19.29076 -49.91002 34266 ft 485 kts 318°
2026-05-05 15:03 -19.23530 -49.95068 34267 ft 485 kts 318°
2026-05-05 15:04 -19.17996 -49.99122 34267 ft 485 kts 318°
2026-05-05 15:04 -19.12418 -50.03206 34265 ft 486 kts 318°
2026-05-05 15:05 -19.04080 -50.09304 34256 ft 487 kts 318°
2026-05-05 15:06 -18.98508 -50.13375 34254 ft 488 kts 318°
2026-05-05 15:06 -18.92905 -50.17466 34257 ft 488 kts 318°
2026-05-05 15:07 -18.87290 -50.21560 34243 ft 489 kts 318°
2026-05-05 15:07 -18.81671 -50.25655 34238 ft 489 kts 318°
2026-05-05 15:08 -18.76061 -50.29740 34236 ft 489 kts 318°
2026-05-05 15:08 -18.70431 -50.33836 34235 ft 489 kts 318°
2026-05-05 15:09 -18.64830 -50.37907 34234 ft 489 kts 318°
2026-05-05 15:09 -18.59203 -50.41994 34234 ft 489 kts 318°
2026-05-05 15:10 -18.53612 -50.46053 34234 ft 489 kts 318°
2026-05-05 15:10 -18.48014 -50.50113 34226 ft 490 kts 318°
2026-05-05 15:11 -18.42351 -50.54213 34234 ft 493 kts 318°
2026-05-05 15:11 -18.36713 -50.58292 34263 ft 494 kts 318°
2026-05-05 15:12 -18.31017 -50.62409 34276 ft 493 kts 318°
2026-05-05 15:12 -18.25367 -50.66489 34296 ft 493 kts 318°
2026-05-05 15:13 -18.19684 -50.70590 34305 ft 494 kts 318°
2026-05-05 15:13 -18.13985 -50.74699 34303 ft 493 kts 318°
2026-05-05 15:14 -18.08328 -50.78776 34296 ft 493 kts 318°
2026-05-05 15:14 -18.02652 -50.82862 34285 ft 494 kts 318°
2026-05-05 15:15 -17.96991 -50.86935 34279 ft 494 kts 319°
2026-05-05 15:15 -17.91282 -50.91038 34278 ft 494 kts 319°
2026-05-05 15:16 -17.85593 -50.95124 34268 ft 494 kts 319°
2026-05-05 15:16 -17.79901 -50.99208 34279 ft 494 kts 319°
2026-05-05 15:17 -17.74233 -51.03273 34285 ft 494 kts 319°
2026-05-05 15:17 -17.68568 -51.07330 34286 ft 494 kts 319°
2026-05-05 15:18 -17.62873 -51.11406 34286 ft 494 kts 319°
2026-05-05 15:18 -17.57208 -51.15458 34285 ft 494 kts 319°
2026-05-05 15:19 -17.51529 -51.19516 34285 ft 494 kts 319°
2026-05-05 15:19 -17.45844 -51.23575 34290 ft 494 kts 319°
2026-05-05 15:20 -17.40128 -51.27654 34302 ft 494 kts 319°
2026-05-05 15:20 -17.34449 -51.31706 34312 ft 494 kts 319°
2026-05-05 15:21 -17.28758 -51.35767 34314 ft 494 kts 319°
2026-05-05 15:21 -17.23079 -51.39818 34314 ft 494 kts 319°
2026-05-05 15:22 -17.17396 -51.43867 34301 ft 494 kts 319°
2026-05-05 15:22 -17.11706 -51.47920 34285 ft 494 kts 319°
2026-05-05 15:23 -17.06022 -51.51964 34268 ft 494 kts 319°
2026-05-05 15:23 -17.00333 -51.56009 34253 ft 494 kts 319°
2026-05-05 15:24 -16.94628 -51.60062 34247 ft 493 kts 319°
2026-05-05 15:24 -16.88973 -51.64077 34242 ft 493 kts 319°
2026-05-05 15:25 -16.83244 -51.68142 34239 ft 494 kts 319°
2026-05-05 15:25 -16.77549 -51.72176 34233 ft 494 kts 320°
2026-05-05 15:26 -16.71862 -51.76201 34226 ft 494 kts 320°
2026-05-05 15:26 -16.66140 -51.80247 34219 ft 494 kts 320°
2026-05-05 15:27 -16.60468 -51.84255 34214 ft 493 kts 320°
2026-05-05 15:27 -16.54794 -51.88262 34212 ft 493 kts 320°
2026-05-05 15:28 -16.49117 -51.92268 34213 ft 493 kts 320°
2026-05-05 15:28 -16.43414 -51.96290 34206 ft 493 kts 320°
2026-05-05 15:29 -16.37748 -52.00283 34193 ft 493 kts 320°
2026-05-05 15:29 -16.32064 -52.04284 34180 ft 492 kts 320°
2026-05-05 15:30 -16.26360 -52.08237 34169 ft 493 kts 321°
2026-05-05 15:30 -16.20575 -52.12128 34162 ft 492 kts 321°
2026-05-05 15:31 -16.14835 -52.15992 34160 ft 493 kts 321°
2026-05-05 15:31 -16.09052 -52.19886 34154 ft 493 kts 321°
2026-05-05 15:32 -16.03311 -52.23750 34143 ft 493 kts 321°
2026-05-05 15:32 -15.97561 -52.27619 34132 ft 492 kts 321°
2026-05-05 15:33 -15.91774 -52.31511 34141 ft 493 kts 321°
2026-05-05 15:33 -15.85997 -52.35394 34143 ft 492 kts 321°
2026-05-05 15:34 -15.80242 -52.39259 34157 ft 492 kts 321°
2026-05-05 15:34 -15.74484 -52.43124 34175 ft 492 kts 321°
2026-05-05 15:35 -15.68695 -52.47008 34183 ft 492 kts 321°
2026-05-05 15:35 -15.62940 -52.50866 34187 ft 492 kts 321°
2026-05-05 15:36 -15.57190 -52.54717 34179 ft 492 kts 321°
2026-05-05 15:36 -15.51415 -52.58583 34169 ft 492 kts 321°
2026-05-05 15:37 -15.45684 -52.62417 34163 ft 491 kts 322°
2026-05-05 15:37 -15.39927 -52.66266 34166 ft 491 kts 322°
2026-05-05 15:38 -15.34189 -52.70099 34164 ft 491 kts 322°
2026-05-05 15:38 -15.28416 -52.73953 34163 ft 491 kts 322°
2026-05-05 15:39 -15.22682 -52.77779 34162 ft 491 kts 322°
2026-05-05 15:39 -15.16946 -52.81603 34164 ft 490 kts 322°
2026-05-05 15:40 -15.11179 -52.85446 34169 ft 490 kts 322°
2026-05-05 15:40 -15.05453 -52.89259 34175 ft 489 kts 322°
2026-05-05 15:41 -14.99750 -52.93054 34179 ft 489 kts 323°
2026-05-05 15:41 -14.93995 -52.96881 34184 ft 489 kts 323°
2026-05-05 15:42 -14.88246 -53.00702 34182 ft 489 kts 323°
2026-05-05 15:42 -14.82524 -53.04503 34182 ft 489 kts 323°
2026-05-05 15:43 -14.76808 -53.08297 34184 ft 489 kts 323°
2026-05-05 15:43 -14.71054 -53.12114 34187 ft 489 kts 323°
2026-05-05 15:44 -14.65148 -53.15632 34189 ft 491 kts 327°
2026-05-05 15:44 -14.59190 -53.19074 34189 ft 490 kts 327°
2026-05-05 15:45 -14.53217 -53.22539 34188 ft 490 kts 327°
2026-05-05 15:45 -14.47293 -53.25985 34187 ft 489 kts 327°
2026-05-05 15:46 -14.41369 -53.29433 34181 ft 489 kts 327°
2026-05-05 15:46 -14.35417 -53.32898 34173 ft 489 kts 327°
2026-05-05 15:47 -14.29497 -53.36345 34164 ft 488 kts 327°
2026-05-05 15:47 -14.23578 -53.39789 34154 ft 488 kts 327°
2026-05-05 15:48 -14.17669 -53.43225 34144 ft 488 kts 327°
2026-05-05 15:48 -14.11731 -53.46677 34134 ft 488 kts 327°
2026-05-05 15:49 -14.05824 -53.50110 34124 ft 488 kts 327°
2026-05-05 15:49 -13.99920 -53.53538 34123 ft 487 kts 327°
2026-05-05 15:50 -13.94017 -53.56964 34126 ft 487 kts 327°
2026-05-05 15:50 -13.88061 -53.60421 34122 ft 487 kts 327°
2026-05-05 15:51 -13.82171 -53.63838 34122 ft 487 kts 328°
2026-05-05 15:51 -13.76247 -53.67273 34127 ft 487 kts 328°
2026-05-05 15:52 -13.70314 -53.70711 34125 ft 487 kts 328°
2026-05-05 15:52 -13.64419 -53.74124 34121 ft 487 kts 328°
2026-05-05 15:53 -13.58515 -53.77542 34116 ft 487 kts 328°
2026-05-05 15:53 -13.52624 -53.80949 34111 ft 487 kts 328°
2026-05-05 15:54 -13.46698 -53.84375 34108 ft 487 kts 328°
2026-05-05 15:54 -13.40795 -53.87786 34108 ft 487 kts 328°
2026-05-05 15:55 -13.34882 -53.91201 34106 ft 487 kts 328°
2026-05-05 15:55 -13.28974 -53.94611 34103 ft 487 kts 328°
2026-05-05 15:56 -13.23073 -53.98015 34099 ft 487 kts 328°
2026-05-05 15:56 -13.17123 -54.01445 34097 ft 487 kts 328°
2026-05-05 15:57 -13.11213 -54.04850 34097 ft 487 kts 328°
2026-05-05 15:57 -13.05306 -54.08250 34097 ft 487 kts 328°
2026-05-05 15:58 -12.99405 -54.11646 34097 ft 486 kts 328°
2026-05-05 15:58 -12.93483 -54.15053 34095 ft 486 kts 328°
2026-05-05 15:59 -12.87582 -54.18442 34091 ft 486 kts 328°
2026-05-05 15:59 -12.81681 -54.21830 34090 ft 486 kts 328°
2026-05-05 16:00 -12.75745 -54.25235 34091 ft 486 kts 329°
2026-05-05 16:00 -12.69838 -54.28623 34091 ft 486 kts 329°
2026-05-05 16:01 -12.63945 -54.32001 34090 ft 486 kts 329°
2026-05-05 16:01 -12.58028 -54.35392 34089 ft 486 kts 329°
2026-05-05 16:02 -12.52126 -54.38773 34088 ft 486 kts 329°
2026-05-05 16:02 -12.46227 -54.42149 34088 ft 486 kts 329°
2026-05-05 16:03 -12.40331 -54.45522 34088 ft 486 kts 329°
2026-05-05 16:03 -12.34422 -54.48901 34089 ft 486 kts 329°
2026-05-05 16:04 -12.28511 -54.52280 34093 ft 486 kts 329°
2026-05-05 16:04 -12.22594 -54.55660 34098 ft 486 kts 329°
2026-05-05 16:05 -12.16647 -54.59055 34102 ft 486 kts 329°
2026-05-05 16:05 -12.10736 -54.62429 34109 ft 486 kts 329°
2026-05-05 16:06 -12.04826 -54.65800 34119 ft 486 kts 329°
2026-05-05 16:06 -11.98928 -54.69163 34131 ft 486 kts 329°
2026-05-05 16:07 -11.92983 -54.72551 34136 ft 486 kts 329°
2026-05-05 16:07 -11.87068 -54.75920 34131 ft 486 kts 329°
2026-05-05 16:08 -11.81168 -54.79279 34124 ft 486 kts 329°
2026-05-05 16:08 -11.75268 -54.82636 34116 ft 486 kts 329°
2026-05-05 16:09 -11.69331 -54.86012 34110 ft 485 kts 329°
2026-05-05 16:09 -11.63425 -54.89369 34105 ft 485 kts 329°
2026-05-05 16:10 -11.57555 -54.92704 34099 ft 485 kts 329°
2026-05-05 16:10 -11.51617 -54.96076 34092 ft 485 kts 329°
2026-05-05 16:11 -11.45712 -54.99428 34085 ft 485 kts 329°
2026-05-05 16:12 -11.33920 -55.06115 34096 ft 485 kts 329°
2026-05-05 16:13 -11.19167 -55.14474 34100 ft 484 kts 330°
2026-05-05 16:13 -11.13283 -55.17806 34106 ft 484 kts 330°
2026-05-05 16:14 -11.01483 -55.24480 34115 ft 484 kts 330°
2026-05-05 16:15 -10.89701 -55.31136 34111 ft 484 kts 330°
2026-05-05 16:16 -10.77877 -55.37809 34105 ft 484 kts 330°
2026-05-05 16:17 -10.69039 -55.42794 34106 ft 484 kts 330°
2026-05-05 16:18 -10.60191 -55.47780 34108 ft 484 kts 330°
2026-05-05 16:19 -10.51340 -55.52766 34111 ft 484 kts 330°
2026-05-05 16:19 -10.42501 -55.57741 34101 ft 484 kts 330°
2026-05-05 16:20 -10.30678 -55.64390 34080 ft 485 kts 330°
2026-05-05 16:22 -10.15896 -55.72696 34073 ft 486 kts 330°
2026-05-05 16:23 -10.04046 -55.79348 34086 ft 485 kts 330°
2026-05-05 16:23 -9.95132 -55.84347 34089 ft 485 kts 330°
2026-05-05 16:24 -9.89175 -55.87688 34082 ft 485 kts 330°
2026-05-05 16:25 -9.80322 -55.92648 34074 ft 485 kts 330°
2026-05-05 16:25 -9.71419 -55.97635 34072 ft 485 kts 330°
2026-05-05 16:26 -9.59551 -56.04151 34082 ft 485 kts 331°
2026-05-05 16:27 -9.53595 -56.07394 34081 ft 485 kts 331°
2026-05-05 16:27 -9.47618 -56.10649 34080 ft 485 kts 331°
2026-05-05 16:28 -9.41681 -56.13882 34073 ft 485 kts 331°
2026-05-05 16:28 -9.35697 -56.17140 34069 ft 485 kts 331°
2026-05-05 16:29 -9.29753 -56.20375 34067 ft 486 kts 331°
2026-05-05 16:29 -9.23783 -56.23623 34067 ft 486 kts 331°
2026-05-05 16:30 -9.17823 -56.26865 34067 ft 486 kts 331°
2026-05-05 16:30 -9.11874 -56.30100 34054 ft 486 kts 331°
2026-05-05 16:31 -9.05912 -56.33340 34041 ft 486 kts 331°
2026-05-05 16:31 -8.99934 -56.36588 34044 ft 486 kts 331°
2026-05-05 16:32 -8.93971 -56.39826 34048 ft 486 kts 331°
2026-05-05 16:32 -8.87960 -56.43089 34047 ft 486 kts 331°
2026-05-05 16:33 -8.81999 -56.46324 34043 ft 486 kts 331°
2026-05-05 16:33 -8.76036 -56.49559 34038 ft 486 kts 331°
2026-05-05 16:34 -8.70079 -56.52790 34037 ft 486 kts 331°
2026-05-05 16:34 -8.64078 -56.56043 34045 ft 486 kts 331°
2026-05-05 16:35 -8.58122 -56.59269 34056 ft 486 kts 331°
2026-05-05 16:35 -8.52141 -56.62510 34065 ft 486 kts 331°
2026-05-05 16:36 -8.46169 -56.65744 34073 ft 486 kts 331°
2026-05-05 16:36 -8.40205 -56.68972 34076 ft 486 kts 331°
2026-05-05 16:37 -8.34202 -56.72220 34078 ft 486 kts 331°
2026-05-05 16:37 -8.28232 -56.75449 34079 ft 486 kts 331°
2026-05-05 16:38 -8.22266 -56.78676 34076 ft 486 kts 331°
2026-05-05 16:38 -8.16291 -56.81906 34074 ft 486 kts 331°
2026-05-05 16:39 -8.10324 -56.85130 34071 ft 486 kts 331°
2026-05-05 16:39 -8.04324 -56.88372 34067 ft 486 kts 331°
2026-05-05 16:40 -7.98335 -56.91604 34063 ft 486 kts 331°
2026-05-05 16:40 -7.92375 -56.94820 34074 ft 486 kts 332°
2026-05-05 16:41 -7.86366 -56.98061 34086 ft 486 kts 331°
2026-05-05 16:41 -7.80366 -57.01297 34089 ft 487 kts 332°
2026-05-05 16:42 -7.74405 -57.04511 34089 ft 487 kts 332°
2026-05-05 16:42 -7.68443 -57.07725 34082 ft 486 kts 332°
2026-05-05 16:43 -7.62473 -57.10941 34072 ft 486 kts 332°
2026-05-05 16:43 -7.56507 -57.14154 34064 ft 486 kts 332°
2026-05-05 16:44 -7.50508 -57.17384 34059 ft 486 kts 332°
2026-05-05 16:44 -7.44535 -57.20599 34058 ft 486 kts 332°
2026-05-05 16:45 -7.38559 -57.23815 34062 ft 487 kts 332°
2026-05-05 16:45 -7.32589 -57.27027 34067 ft 487 kts 332°
2026-05-05 16:46 -7.26608 -57.30244 34076 ft 487 kts 332°
2026-05-05 16:46 -7.20606 -57.33469 34081 ft 486 kts 332°
2026-05-05 16:47 -7.14640 -57.36676 34074 ft 486 kts 332°
2026-05-05 16:47 -7.08688 -57.39874 34066 ft 486 kts 332°
2026-05-05 16:48 -7.02722 -57.43079 34058 ft 486 kts 332°
2026-05-05 16:48 -6.96727 -57.46298 34051 ft 486 kts 332°
2026-05-05 16:49 -6.90769 -57.49497 34051 ft 486 kts 332°
2026-05-05 16:49 -6.84779 -57.52711 34047 ft 486 kts 332°
2026-05-05 16:50 -6.78775 -57.55932 34043 ft 486 kts 332°
2026-05-05 16:50 -6.72810 -57.59132 34038 ft 486 kts 332°
2026-05-05 16:51 -6.66840 -57.62333 34036 ft 486 kts 332°
2026-05-05 16:51 -6.60853 -57.65542 34033 ft 487 kts 332°
2026-05-05 16:52 -6.54830 -57.68770 34029 ft 487 kts 332°
2026-05-05 16:52 -6.48854 -57.71972 34026 ft 487 kts 332°
2026-05-05 16:53 -6.42879 -57.75171 34021 ft 487 kts 332°
2026-05-05 16:53 -6.36866 -57.78390 34013 ft 487 kts 332°
2026-05-05 16:54 -6.30916 -57.81576 34007 ft 487 kts 332°
2026-05-05 16:54 -6.24916 -57.84788 34006 ft 487 kts 332°
2026-05-05 16:55 -6.18894 -57.88010 34008 ft 487 kts 332°
2026-05-05 16:55 -6.12899 -57.91217 34011 ft 486 kts 332°
2026-05-05 16:56 -6.06930 -57.94408 34014 ft 486 kts 332°
2026-05-05 16:56 -6.00932 -57.97615 34016 ft 486 kts 332°
2026-05-05 16:57 -5.94969 -58.00803 34016 ft 486 kts 332°
2026-05-05 16:57 -5.88977 -58.04004 34013 ft 486 kts 332°
2026-05-05 16:58 -5.83014 -58.07190 34011 ft 486 kts 332°
2026-05-05 16:58 -5.77052 -58.10375 34010 ft 486 kts 332°
2026-05-05 16:59 -5.71040 -58.13585 34012 ft 486 kts 332°
2026-05-05 16:59 -5.65082 -58.16765 34011 ft 486 kts 332°
2026-05-05 17:00 -5.59118 -58.19949 34010 ft 486 kts 332°
2026-05-05 17:00 -5.53103 -58.23158 34008 ft 486 kts 332°
2026-05-05 17:01 -5.47143 -58.26338 34005 ft 486 kts 332°
2026-05-05 17:01 -5.41160 -58.29528 34005 ft 486 kts 332°
2026-05-05 17:02 -5.35185 -58.32715 34005 ft 486 kts 332°
2026-05-05 17:02 -5.29207 -58.35901 34006 ft 486 kts 332°
2026-05-05 17:03 -5.23194 -58.39106 34005 ft 486 kts 332°
2026-05-05 17:03 -5.17220 -58.42290 34005 ft 486 kts 332°
2026-05-05 17:04 -5.11228 -58.45482 34006 ft 486 kts 332°
2026-05-05 17:04 -5.05242 -58.48671 34006 ft 487 kts 332°
2026-05-05 17:05 -4.99268 -58.51852 34007 ft 487 kts 332°
2026-05-05 17:05 -4.93249 -58.55058 34008 ft 487 kts 332°
2026-05-05 17:06 -4.87241 -58.58256 34008 ft 487 kts 332°
2026-05-05 17:06 -4.81242 -58.61449 34009 ft 487 kts 332°
2026-05-05 17:07 -4.75262 -58.64630 34010 ft 487 kts 332°
2026-05-05 17:07 -4.69226 -58.67840 34011 ft 487 kts 333°
2026-05-05 17:08 -4.63236 -58.71027 34015 ft 487 kts 333°
2026-05-05 17:08 -4.57256 -58.74207 34017 ft 487 kts 333°
2026-05-05 17:09 -4.51219 -58.77377 34217 ft 495 kts 333°
2026-05-05 17:09 -4.48136 -58.78977 34739 ft 491 kts 333°
2026-05-05 17:09 -4.45127 -58.80539 35293 ft 486 kts 333°
2026-05-05 17:10 -4.42141 -58.82090 35677 ft 485 kts 333°
2026-05-05 17:10 -4.39147 -58.83644 36031 ft 487 kts 333°
2026-05-05 17:10 -4.33314 -58.86673 36114 ft 486 kts 333°
2026-05-05 17:11 -4.27127 -58.89887 36012 ft 478 kts 333°
2026-05-05 17:11 -4.21167 -58.92984 35994 ft 482 kts 333°
2026-05-05 17:12 -4.15213 -58.96076 35990 ft 482 kts 333°
2026-05-05 17:12 -4.09256 -58.99169 35989 ft 483 kts 333°
2026-05-05 17:13 -4.03288 -59.02268 35996 ft 483 kts 333°
2026-05-05 17:13 -3.97298 -59.05378 35998 ft 483 kts 333°
2026-05-05 17:14 -3.91303 -59.08490 35994 ft 483 kts 333°
2026-05-05 17:14 -3.85326 -59.11592 35992 ft 482 kts 333°
2026-05-05 17:15 -3.79372 -59.14683 35994 ft 483 kts 333°
2026-05-05 17:15 -3.73377 -59.17793 35994 ft 483 kts 333°
2026-05-05 17:16 -3.67399 -59.20894 35994 ft 483 kts 333°
2026-05-05 17:16 -3.61404 -59.24004 35994 ft 483 kts 333°
2026-05-05 17:17 -3.55421 -59.27106 35994 ft 483 kts 333°
2026-05-05 17:17 -3.49450 -59.30203 35992 ft 483 kts 333°
2026-05-05 17:18 -3.43483 -59.33296 35990 ft 483 kts 333°
2026-05-05 17:18 -3.37506 -59.36395 35990 ft 483 kts 333°
2026-05-05 17:19 -3.31532 -59.39497 35991 ft 483 kts 333°
2026-05-05 17:19 -3.25541 -59.42608 35991 ft 483 kts 333°
2026-05-05 17:20 -3.19576 -59.45705 35992 ft 483 kts 333°
2026-05-05 17:20 -3.13583 -59.48814 35993 ft 483 kts 333°
2026-05-05 17:21 -3.07598 -59.51917 35995 ft 483 kts 333°
2026-05-05 17:22 -2.98685 -59.56615 35996 ft 483 kts 333°
2026-05-05 17:22 -2.92752 -59.59773 35997 ft 483 kts 333°
2026-05-05 17:23 -2.86770 -59.62956 35998 ft 483 kts 333°
2026-05-05 17:23 -2.80834 -59.66113 35997 ft 483 kts 333°
2026-05-05 17:24 -2.74905 -59.69266 35997 ft 483 kts 333°
2026-05-05 17:24 -2.68946 -59.72433 36000 ft 482 kts 333°
2026-05-05 17:25 -2.63035 -59.75574 36005 ft 482 kts 333°
2026-05-05 17:25 -2.57075 -59.78741 36008 ft 482 kts 333°
2026-05-05 17:26 -2.51136 -59.81896 36008 ft 481 kts 333°
2026-05-05 17:26 -2.45318 -59.84987 36008 ft 481 kts 333°
2026-05-05 17:27 -2.39356 -59.88153 36008 ft 481 kts 333°
2026-05-05 17:27 -2.33443 -59.91293 36007 ft 481 kts 333°
2026-05-05 17:28 -2.27531 -59.94433 36007 ft 481 kts 333°
2026-05-05 17:28 -2.22072 -59.98284 36006 ft 483 kts 317°
2026-05-05 17:29 -2.17180 -60.02939 36007 ft 483 kts 316°
2026-05-05 17:29 -2.12336 -60.07578 36007 ft 483 kts 316°
2026-05-05 17:30 -2.07483 -60.12225 36008 ft 483 kts 316°
2026-05-05 17:30 -2.02611 -60.16886 36007 ft 483 kts 316°
2026-05-05 17:31 -1.97773 -60.21507 36006 ft 483 kts 317°
2026-05-05 17:31 -1.92898 -60.26161 36006 ft 483 kts 317°
2026-05-05 17:32 -1.88032 -60.30806 36005 ft 483 kts 316°
2026-05-05 17:32 -1.83150 -60.35465 36005 ft 483 kts 317°
2026-05-05 17:33 -1.78292 -60.40104 36005 ft 483 kts 317°
2026-05-05 17:33 -1.73442 -60.44732 36005 ft 483 kts 317°
2026-05-05 17:34 -1.68579 -60.49372 36005 ft 483 kts 316°
2026-05-05 17:34 -1.63729 -60.54000 36004 ft 482 kts 316°
2026-05-05 17:35 -1.58877 -60.58629 36004 ft 482 kts 316°
2026-05-05 17:35 -1.53999 -60.63283 36004 ft 482 kts 316°
2026-05-05 17:36 -1.49140 -60.67919 36002 ft 482 kts 317°
2026-05-05 17:36 -1.44296 -60.72539 36002 ft 482 kts 317°
2026-05-05 17:37 -1.39436 -60.77176 36002 ft 482 kts 317°
2026-05-05 17:37 -1.34608 -60.81810 36003 ft 481 kts 315°
2026-05-05 17:38 -1.29869 -60.86538 36004 ft 481 kts 315°
2026-05-05 17:38 -1.25147 -60.91248 36005 ft 481 kts 315°
2026-05-05 17:39 -1.20387 -60.95988 36005 ft 481 kts 315°
2026-05-05 17:39 -1.15654 -61.00699 36003 ft 481 kts 315°
2026-05-05 17:40 -1.10915 -61.05413 36001 ft 481 kts 315°
2026-05-05 17:40 -1.06191 -61.10113 35999 ft 480 kts 315°
2026-05-05 17:41 -1.01457 -61.14822 35999 ft 480 kts 315°
2026-05-05 17:41 -0.96701 -61.19552 35999 ft 480 kts 315°
2026-05-05 17:42 -0.91968 -61.24258 35998 ft 480 kts 315°
2026-05-05 17:42 -0.87232 -61.28966 35998 ft 480 kts 315°
2026-05-05 17:43 -0.82510 -61.33662 35997 ft 480 kts 315°
2026-05-05 17:43 -0.77751 -61.38393 35996 ft 480 kts 315°
2026-05-05 17:44 -0.73048 -61.43070 35995 ft 480 kts 315°
2026-05-05 17:44 -0.68296 -61.47794 35994 ft 479 kts 315°
2026-05-05 17:45 -0.63584 -61.52479 35993 ft 479 kts 315°
2026-05-05 17:45 -0.58838 -61.57196 35993 ft 479 kts 315°
2026-05-05 17:46 -0.54122 -61.61886 35993 ft 479 kts 315°
2026-05-05 17:46 -0.49388 -61.66591 35991 ft 479 kts 315°
2026-05-05 17:47 -0.44749 -61.71203 35990 ft 479 kts 315°
2026-05-05 17:47 -0.40034 -61.75890 35990 ft 479 kts 315°
2026-05-05 17:48 -0.35295 -61.80600 35990 ft 479 kts 315°
2026-05-05 17:48 -0.30582 -61.85285 35991 ft 478 kts 315°
2026-05-05 17:49 -0.25862 -61.89977 35991 ft 478 kts 315°
2026-05-05 17:49 -0.21149 -61.94662 35992 ft 478 kts 316°
2026-05-05 17:50 -0.16429 -61.99353 35993 ft 479 kts 316°
2026-05-05 17:50 -0.11775 -62.03979 35993 ft 479 kts 316°
2026-05-05 17:51 -0.07055 -62.08670 35993 ft 478 kts 316°
2026-05-05 17:51 -0.02345 -62.13351 35996 ft 478 kts 316°
2026-05-05 17:52 0.02386 -62.18055 36001 ft 478 kts 316°
2026-05-05 17:52 0.07122 -62.22761 36003 ft 478 kts 316°
2026-05-05 17:53 0.11850 -62.27462 36004 ft 478 kts 316°
2026-05-05 17:53 0.16560 -62.32143 36004 ft 478 kts 316°
2026-05-05 17:54 0.21292 -62.36846 36004 ft 478 kts 316°
2026-05-05 17:54 0.25993 -62.41518 36005 ft 478 kts 316°
2026-05-05 17:55 0.30719 -62.46217 36004 ft 478 kts 315°
2026-05-05 17:55 0.35432 -62.50902 36005 ft 478 kts 315°
2026-05-05 17:56 0.40172 -62.55613 36005 ft 478 kts 315°
2026-05-05 17:56 0.44888 -62.60301 36005 ft 478 kts 315°
2026-05-05 17:57 0.49595 -62.64980 36005 ft 478 kts 315°
2026-05-05 17:57 0.54315 -62.69672 36004 ft 478 kts 315°
2026-05-05 17:58 0.59051 -62.74381 36005 ft 478 kts 315°
2026-05-05 17:58 0.63770 -62.79072 36006 ft 478 kts 315°
2026-05-05 17:59 0.68511 -62.83785 36007 ft 478 kts 315°
2026-05-05 17:59 0.73206 -62.88453 36008 ft 478 kts 315°
2026-05-05 18:00 0.77946 -62.93166 36009 ft 478 kts 315°
2026-05-05 18:00 0.82656 -62.97848 36010 ft 478 kts 315°
2026-05-05 18:01 0.87377 -63.02542 36013 ft 478 kts 315°
2026-05-05 18:01 0.92086 -63.07225 36017 ft 478 kts 315°
2026-05-05 18:02 0.96801 -63.11914 36021 ft 478 kts 315°
2026-05-05 18:02 1.01501 -63.16587 36024 ft 478 kts 315°
2026-05-05 18:03 1.06211 -63.21270 36023 ft 478 kts 315°
2026-05-05 18:03 1.10952 -63.25986 36022 ft 478 kts 315°
2026-05-05 18:04 1.15657 -63.30665 36020 ft 478 kts 315°
2026-05-05 18:04 1.20443 -63.35328 36014 ft 477 kts 321°
2026-05-05 18:05 1.25686 -63.39369 36021 ft 477 kts 323°
2026-05-05 18:05 1.30971 -63.43360 36024 ft 476 kts 323°
2026-05-05 18:06 1.36256 -63.47353 36024 ft 476 kts 323°
2026-05-05 18:06 1.41547 -63.51355 36020 ft 476 kts 323°
2026-05-05 18:07 1.46841 -63.55358 36018 ft 476 kts 323°
2026-05-05 18:07 1.52125 -63.59357 36017 ft 476 kts 323°
2026-05-05 18:08 1.57427 -63.63369 36021 ft 476 kts 323°
2026-05-05 18:08 1.62715 -63.67370 36024 ft 475 kts 323°
2026-05-05 18:09 1.67986 -63.71359 36026 ft 475 kts 323°
2026-05-05 18:09 1.73278 -63.75363 36027 ft 475 kts 323°
2026-05-05 18:10 1.78530 -63.79338 36037 ft 475 kts 323°
2026-05-05 18:10 1.83805 -63.83331 36060 ft 475 kts 323°
2026-05-05 18:11 1.89087 -63.87329 36077 ft 475 kts 323°
2026-05-05 18:11 1.94350 -63.91314 36068 ft 477 kts 323°
2026-05-05 18:12 1.99683 -63.95348 36024 ft 479 kts 324°
2026-05-05 18:12 2.05229 -63.99030 36002 ft 479 kts 327°
2026-05-05 18:13 2.10844 -64.02681 35978 ft 479 kts 327°
2026-05-05 18:13 2.16423 -64.06330 35980 ft 479 kts 327°
2026-05-05 18:14 2.21992 -64.09984 36006 ft 479 kts 327°
2026-05-05 18:14 2.27602 -64.13670 36039 ft 480 kts 327°
2026-05-05 18:15 2.33166 -64.17331 36017 ft 479 kts 327°
2026-05-05 18:15 2.38738 -64.20998 35979 ft 479 kts 327°
2026-05-05 18:16 2.44304 -64.24665 35933 ft 479 kts 327°
2026-05-05 18:16 2.49897 -64.28348 35853 ft 479 kts 327°
2026-05-05 18:17 2.55452 -64.32008 35805 ft 479 kts 327°
2026-05-05 18:17 2.61050 -64.35695 35821 ft 479 kts 327°
2026-05-05 18:18 2.66610 -64.39358 35867 ft 478 kts 327°
2026-05-05 18:18 2.72161 -64.43017 35935 ft 478 kts 327°
2026-05-05 18:19 2.77712 -64.46674 35988 ft 478 kts 327°
2026-05-05 18:19 2.83307 -64.50362 35977 ft 478 kts 327°
2026-05-05 18:20 2.88855 -64.54020 35953 ft 478 kts 327°
2026-05-05 18:20 2.94382 -64.57664 35919 ft 477 kts 327°
2026-05-05 18:21 2.99960 -64.61342 35894 ft 477 kts 327°
2026-05-05 18:21 3.05490 -64.64989 35883 ft 477 kts 327°
2026-05-05 18:22 3.11066 -64.68666 35799 ft 477 kts 327°
2026-05-05 18:22 3.16604 -64.72319 35551 ft 477 kts 327°
2026-05-05 18:22 3.19374 -64.74146 35343 ft 477 kts 327°
2026-05-05 18:23 3.22132 -64.75967 35159 ft 475 kts 327°
2026-05-05 18:23 3.27675 -64.79623 35083 ft 478 kts 327°
2026-05-05 18:24 3.33218 -64.83280 35284 ft 478 kts 327°
2026-05-05 18:24 3.36034 -64.85139 35511 ft 480 kts 327°
2026-05-05 18:24 3.38810 -64.86971 35671 ft 480 kts 327°
2026-05-05 18:24 3.41584 -64.88802 35779 ft 479 kts 327°
2026-05-05 18:25 3.44368 -64.90640 35861 ft 479 kts 327°
2026-05-05 18:25 3.49955 -64.94329 35971 ft 477 kts 327°
2026-05-05 18:26 3.55481 -64.97977 35976 ft 475 kts 327°
2026-05-05 18:26 3.60989 -65.01614 35935 ft 475 kts 327°
2026-05-05 18:27 3.66497 -65.05252 35911 ft 475 kts 327°
2026-05-05 18:27 3.72034 -65.08910 35892 ft 474 kts 327°
2026-05-05 18:28 3.80313 -65.14380 35817 ft 474 kts 327°
2026-05-05 18:28 3.85810 -65.18012 35680 ft 474 kts 327°
2026-05-05 18:29 3.91315 -65.21651 35495 ft 474 kts 327°
2026-05-05 18:29 3.96846 -65.25307 35294 ft 475 kts 327°
2026-05-05 18:30 4.02347 -65.28944 35147 ft 475 kts 327°
2026-05-05 18:30 4.07900 -65.32614 35037 ft 476 kts 327°
2026-05-05 18:31 4.13438 -65.36277 34955 ft 477 kts 327°
2026-05-05 18:31 4.18961 -65.39931 34873 ft 476 kts 327°
2026-05-05 18:32 4.24515 -65.43605 34803 ft 476 kts 327°
2026-05-05 18:32 4.29954 -65.47205 34800 ft 476 kts 327°
2026-05-05 18:33 4.35499 -65.50874 34849 ft 476 kts 327°
2026-05-05 18:33 4.41017 -65.54527 34860 ft 476 kts 327°
2026-05-05 18:34 4.46560 -65.58197 34856 ft 476 kts 327°
2026-05-05 18:34 4.52072 -65.61846 34839 ft 476 kts 327°
2026-05-05 18:35 4.57611 -65.65514 34829 ft 475 kts 327°
2026-05-05 18:35 4.63182 -65.69205 34862 ft 476 kts 327°
2026-05-05 18:36 4.68679 -65.72846 34942 ft 476 kts 327°
2026-05-05 18:36 4.74197 -65.76503 35060 ft 475 kts 327°
2026-05-05 18:37 4.79712 -65.80158 35135 ft 475 kts 327°
2026-05-05 18:37 4.85218 -65.83809 35160 ft 473 kts 327°
2026-05-05 18:38 4.90712 -65.87452 35172 ft 473 kts 327°
2026-05-05 18:38 4.96204 -65.91093 35198 ft 473 kts 327°
2026-05-05 18:39 5.01694 -65.94736 35270 ft 472 kts 327°
2026-05-05 18:39 5.07179 -65.98374 35308 ft 472 kts 327°
2026-05-05 18:40 5.12668 -66.02017 35367 ft 471 kts 327°
2026-05-05 18:40 5.18133 -66.05644 35393 ft 470 kts 327°
2026-05-05 18:41 5.23592 -66.09268 35347 ft 470 kts 327°
2026-05-05 18:41 5.29041 -66.12886 35222 ft 469 kts 327°
2026-05-05 18:42 5.34478 -66.16498 35145 ft 468 kts 327°
2026-05-05 18:42 5.39926 -66.20116 35088 ft 469 kts 327°
2026-05-05 18:43 5.45378 -66.23739 35035 ft 470 kts 327°
2026-05-05 18:43 5.50846 -66.27374 34967 ft 469 kts 327°
2026-05-05 18:44 5.56291 -66.30993 34903 ft 469 kts 327°
2026-05-05 18:44 5.61742 -66.34617 34856 ft 470 kts 327°
2026-05-05 18:45 5.67196 -66.38244 34824 ft 470 kts 327°
2026-05-05 18:45 5.72652 -66.41874 34799 ft 470 kts 327°
2026-05-05 18:46 5.78106 -66.45503 34791 ft 470 kts 327°
2026-05-05 18:46 5.83557 -66.49130 34798 ft 469 kts 327°
2026-05-05 18:47 5.89003 -66.52755 34821 ft 469 kts 327°
2026-05-05 18:47 5.94450 -66.56382 34857 ft 469 kts 327°
2026-05-05 18:48 5.99895 -66.60008 34895 ft 469 kts 327°
2026-05-05 18:48 6.05346 -66.63639 34954 ft 470 kts 327°
2026-05-05 18:49 6.10823 -66.67288 35027 ft 469 kts 327°
2026-05-05 18:49 6.16270 -66.70920 35095 ft 468 kts 327°
2026-05-05 18:50 6.21693 -66.74535 35158 ft 467 kts 327°
2026-05-05 18:50 6.27110 -66.78146 35230 ft 466 kts 327°
2026-05-05 18:51 6.29812 -66.79949 35367 ft 466 kts 327°
2026-05-05 18:51 6.32522 -66.81757 35510 ft 468 kts 327°
2026-05-05 18:51 6.35234 -66.83566 35636 ft 468 kts 327°
2026-05-05 18:51 6.37947 -66.85376 35745 ft 468 kts 327°
2026-05-05 18:52 6.43373 -66.88997 35932 ft 468 kts 327°
2026-05-05 18:52 6.48790 -66.92612 36045 ft 466 kts 327°
2026-05-05 18:53 6.54197 -66.96223 36042 ft 465 kts 327°
2026-05-05 18:53 6.59600 -66.99827 36014 ft 465 kts 327°
2026-05-05 18:54 6.64997 -67.03423 35978 ft 464 kts 327°
2026-05-05 18:54 6.70402 -67.07024 35961 ft 465 kts 327°
2026-05-05 18:55 6.75811 -67.10631 35956 ft 465 kts 327°
2026-05-05 18:55 6.81212 -67.14233 35959 ft 465 kts 327°
2026-05-05 18:56 6.86607 -67.17832 35963 ft 464 kts 327°
2026-05-05 18:56 6.92008 -67.21436 35963 ft 464 kts 327°
2026-05-05 18:57 6.97398 -67.25034 35959 ft 464 kts 327°
2026-05-05 18:57 7.02787 -67.28633 35956 ft 464 kts 327°
2026-05-05 18:58 7.08210 -67.32257 35953 ft 464 kts 327°
2026-05-05 18:58 7.13630 -67.35880 35956 ft 464 kts 327°
2026-05-05 18:59 7.19014 -67.39480 35957 ft 464 kts 327°
2026-05-05 18:59 7.24416 -67.43093 35957 ft 464 kts 327°
2026-05-05 19:00 7.29819 -67.46708 35958 ft 464 kts 327°
2026-05-05 19:00 7.35204 -67.50314 35959 ft 464 kts 327°
2026-05-05 19:01 7.40595 -67.53930 35961 ft 464 kts 327°
2026-05-05 19:01 7.45981 -67.57543 35962 ft 464 kts 327°
2026-05-05 19:02 7.51351 -67.61146 35964 ft 464 kts 327°
2026-05-05 19:02 7.56737 -67.64762 35966 ft 464 kts 327°
2026-05-05 19:03 7.62122 -67.68377 35968 ft 464 kts 327°
2026-05-05 19:03 7.67527 -67.72007 35970 ft 464 kts 327°
2026-05-05 19:04 7.72903 -67.75619 35972 ft 464 kts 327°
2026-05-05 19:04 7.78291 -67.79239 35974 ft 463 kts 327°
2026-05-05 19:05 7.83658 -67.82847 35976 ft 463 kts 327°
2026-05-05 19:05 7.89030 -67.86459 35979 ft 463 kts 327°
2026-05-05 19:06 7.94394 -67.90068 35981 ft 463 kts 327°
2026-05-05 19:06 7.99763 -67.93680 35984 ft 463 kts 327°
2026-05-05 19:07 8.05143 -67.97302 35989 ft 463 kts 327°
2026-05-05 19:07 8.10512 -68.00916 35999 ft 463 kts 327°
2026-05-05 19:08 8.15883 -68.04535 36011 ft 463 kts 327°
2026-05-05 19:08 8.21266 -68.08162 36014 ft 463 kts 327°
2026-05-05 19:09 8.26623 -68.11774 36015 ft 463 kts 327°
2026-05-05 19:09 8.31984 -68.15388 36017 ft 463 kts 327°
2026-05-05 19:10 8.37343 -68.19003 36016 ft 463 kts 327°
2026-05-05 19:10 8.42703 -68.22619 36007 ft 463 kts 327°
2026-05-05 19:11 8.48071 -68.26242 35999 ft 463 kts 327°
2026-05-05 19:11 8.53436 -68.29864 35996 ft 463 kts 327°
2026-05-05 19:12 8.58795 -68.33483 35996 ft 463 kts 327°
2026-05-05 19:12 8.64161 -68.37109 35998 ft 463 kts 327°
2026-05-05 19:13 8.69533 -68.40740 36001 ft 464 kts 327°
2026-05-05 19:13 8.74910 -68.44376 36003 ft 464 kts 327°
2026-05-05 19:14 8.80286 -68.48013 36006 ft 464 kts 327°
2026-05-05 19:14 8.85655 -68.51645 36009 ft 464 kts 327°
2026-05-05 19:15 8.91033 -68.55286 36008 ft 464 kts 327°
2026-05-05 19:15 8.96394 -68.58915 35998 ft 464 kts 327°
2026-05-05 19:16 9.01793 -68.62573 35990 ft 465 kts 327°
2026-05-05 19:16 9.07159 -68.66208 35993 ft 465 kts 327°
2026-05-05 19:17 9.12586 -68.69887 36000 ft 465 kts 327°
2026-05-05 19:17 9.17952 -68.73525 36004 ft 465 kts 327°
2026-05-05 19:18 9.23341 -68.77180 36007 ft 465 kts 327°
2026-05-05 19:18 9.28710 -68.80823 36011 ft 465 kts 327°
2026-05-05 19:19 9.34115 -68.84493 36015 ft 465 kts 327°
2026-05-05 19:19 9.39485 -68.88141 36019 ft 466 kts 327°
2026-05-05 19:20 9.44901 -68.91819 36024 ft 466 kts 327°
2026-05-05 19:20 9.50284 -68.95477 36029 ft 466 kts 327°
2026-05-05 19:21 9.55648 -68.99123 36037 ft 466 kts 327°
2026-05-05 19:21 9.61050 -69.02798 36047 ft 466 kts 327°
2026-05-05 19:22 9.66411 -69.06445 36063 ft 466 kts 327°
2026-05-05 19:22 9.71833 -69.10133 36081 ft 466 kts 327°
2026-05-05 19:23 9.77218 -69.13799 36101 ft 466 kts 327°
2026-05-05 19:23 9.82596 -69.17461 36120 ft 466 kts 327°
2026-05-05 19:24 9.88012 -69.21151 36133 ft 466 kts 327°
2026-05-05 19:24 9.93402 -69.24824 36129 ft 467 kts 326°
2026-05-05 19:25 9.98779 -69.28490 36133 ft 467 kts 326°
2026-05-05 19:25 10.04179 -69.32174 36109 ft 467 kts 326°
2026-05-05 19:26 10.09593 -69.35867 36087 ft 466 kts 326°
2026-05-05 19:26 10.14971 -69.39538 36094 ft 467 kts 326°
2026-05-05 19:27 10.20384 -69.43233 36102 ft 467 kts 326°
2026-05-05 19:27 10.25765 -69.46908 36103 ft 467 kts 326°
2026-05-05 19:28 10.31184 -69.50611 36100 ft 468 kts 326°
2026-05-05 19:28 10.36575 -69.54298 36091 ft 468 kts 326°
2026-05-05 19:29 10.41965 -69.57986 36076 ft 467 kts 326°
2026-05-05 19:29 10.47378 -69.61691 36058 ft 467 kts 326°
2026-05-05 19:30 10.52779 -69.65390 36043 ft 467 kts 326°
2026-05-05 19:30 10.58178 -69.69089 36046 ft 467 kts 326°
2026-05-05 19:31 10.63564 -69.72774 36054 ft 467 kts 326°
2026-05-05 19:31 10.68979 -69.76472 36057 ft 467 kts 326°
2026-05-05 19:32 10.74361 -69.80164 35981 ft 468 kts 326°
2026-05-05 19:32 10.77081 -69.82032 35868 ft 467 kts 326°
2026-05-05 19:32 10.79768 -69.83878 35805 ft 466 kts 326°
2026-05-05 19:33 10.85123 -69.87556 35845 ft 466 kts 326°
2026-05-05 19:33 10.90496 -69.91250 35985 ft 467 kts 326°
2026-05-05 19:34 10.95898 -69.94964 36046 ft 468 kts 326°
2026-05-05 19:35 11.03963 -70.00513 35995 ft 465 kts 326°
2026-05-05 19:35 11.09355 -70.04223 35970 ft 465 kts 326°
2026-05-05 19:36 11.14716 -70.07910 35966 ft 465 kts 325°
2026-05-05 19:36 11.20090 -70.11608 35960 ft 465 kts 325°
2026-05-05 19:37 11.25442 -70.15292 35949 ft 465 kts 325°
2026-05-05 19:37 11.30824 -70.19000 35939 ft 465 kts 325°
2026-05-05 19:38 11.36172 -70.22685 35932 ft 465 kts 325°
2026-05-05 19:38 11.41557 -70.26399 35918 ft 465 kts 325°
2026-05-05 19:39 11.46900 -70.30084 35902 ft 464 kts 325°
2026-05-05 19:39 11.52236 -70.33766 35898 ft 464 kts 325°
2026-05-05 19:40 11.57611 -70.37477 35898 ft 464 kts 325°
2026-05-05 19:40 11.62940 -70.41164 35897 ft 464 kts 325°
2026-05-05 19:41 11.68275 -70.44878 35895 ft 464 kts 325°
2026-05-05 19:41 11.73636 -70.48592 35893 ft 464 kts 325°
2026-05-05 19:42 11.78992 -70.52303 35892 ft 464 kts 325°
2026-05-05 19:42 11.84325 -70.55999 35892 ft 464 kts 325°
2026-05-05 19:43 11.89675 -70.59709 35892 ft 464 kts 325°
2026-05-05 19:43 11.94996 -70.63402 35894 ft 464 kts 325°
2026-05-05 19:44 12.00340 -70.67111 35899 ft 464 kts 324°
2026-05-05 19:44 12.05685 -70.70824 35901 ft 464 kts 324°
2026-05-05 19:45 12.11039 -70.74544 35904 ft 464 kts 324°
2026-05-05 19:45 12.16354 -70.78239 35906 ft 463 kts 324°
2026-05-05 19:46 12.21701 -70.81959 35908 ft 462 kts 324°
2026-05-05 19:46 12.27033 -70.85668 35910 ft 462 kts 324°
2026-05-05 19:47 12.32349 -70.89367 35911 ft 462 kts 324°
2026-05-05 19:47 12.37648 -70.93057 35912 ft 462 kts 324°
2026-05-05 19:48 12.42993 -70.96780 35913 ft 462 kts 324°
2026-05-05 19:48 12.48301 -71.00479 35914 ft 462 kts 324°
2026-05-05 19:49 12.53662 -71.04127 35915 ft 462 kts 326°
2026-05-05 19:49 12.59078 -71.07725 35922 ft 462 kts 326°
2026-05-05 19:50 12.64446 -71.11298 35932 ft 462 kts 326°
2026-05-05 19:50 12.69854 -71.14904 35933 ft 462 kts 326°
2026-05-05 19:51 12.75088 -71.18398 35931 ft 462 kts 326°
2026-05-05 19:51 12.80474 -71.21995 35929 ft 461 kts 326°
2026-05-05 19:52 12.85846 -71.25584 35929 ft 461 kts 326°
2026-05-05 19:52 12.91237 -71.29190 35928 ft 461 kts 326°
2026-05-05 19:53 12.96602 -71.32780 35927 ft 461 kts 326°
2026-05-05 19:53 13.01958 -71.36366 35926 ft 461 kts 325°
2026-05-05 19:54 13.07348 -71.39977 35926 ft 460 kts 325°
2026-05-05 19:54 13.12727 -71.43581 35926 ft 460 kts 325°
2026-05-05 19:55 13.18079 -71.47169 35926 ft 460 kts 325°
2026-05-05 19:55 13.23465 -71.50780 35926 ft 461 kts 325°
2026-05-05 19:56 13.28834 -71.54382 35925 ft 461 kts 325°
2026-05-05 19:56 13.34193 -71.57979 35925 ft 460 kts 325°
2026-05-05 19:57 13.39544 -71.61572 35924 ft 460 kts 325°
2026-05-05 19:57 13.44916 -71.65182 35924 ft 460 kts 325°
2026-05-05 19:58 13.50253 -71.68771 35929 ft 459 kts 325°
2026-05-05 19:58 13.55625 -71.72385 35929 ft 459 kts 325°
2026-05-05 19:59 13.60957 -71.75973 35929 ft 459 kts 325°
2026-05-05 19:59 13.66325 -71.79588 35929 ft 459 kts 325°
2026-05-05 20:00 13.71657 -71.83181 35929 ft 459 kts 325°
2026-05-05 20:00 13.76988 -71.86775 35930 ft 459 kts 324°
2026-05-05 20:01 13.82350 -71.90392 35930 ft 458 kts 324°
2026-05-05 20:01 13.87671 -71.93984 35930 ft 459 kts 324°
2026-05-05 20:02 13.93040 -71.97591 35930 ft 459 kts 325°
2026-05-05 20:02 13.98369 -72.01169 35931 ft 459 kts 325°
2026-05-05 20:03 14.03709 -72.04757 35932 ft 459 kts 325°
2026-05-05 20:03 14.09089 -72.08375 35932 ft 459 kts 325°
2026-05-05 20:04 14.14442 -72.11977 35934 ft 459 kts 325°
2026-05-05 20:04 14.19789 -72.15576 35935 ft 459 kts 325°
2026-05-05 20:05 14.25125 -72.19171 35936 ft 459 kts 325°
2026-05-05 20:05 14.30486 -72.22784 35937 ft 458 kts 324°
2026-05-05 20:06 14.35810 -72.26389 35939 ft 458 kts 324°
2026-05-05 20:06 14.41112 -72.30019 35940 ft 458 kts 324°
2026-05-05 20:07 14.46438 -72.33668 35942 ft 458 kts 324°
2026-05-05 20:07 14.51741 -72.37301 35942 ft 458 kts 324°
2026-05-05 20:08 14.57047 -72.40937 35941 ft 457 kts 324°
2026-05-05 20:08 14.62372 -72.44588 35942 ft 458 kts 324°
2026-05-05 20:09 14.67728 -72.48245 36453 ft 463 kts 324°
2026-05-05 20:09 14.70406 -72.50072 36970 ft 459 kts 324°
2026-05-05 20:09 14.73056 -72.51881 37364 ft 458 kts 324°
2026-05-05 20:09 14.75709 -72.53692 37653 ft 459 kts 324°
2026-05-05 20:10 14.78401 -72.55531 37961 ft 461 kts 324°
2026-05-05 20:10 14.83748 -72.59187 38061 ft 459 kts 324°
2026-05-05 20:11 14.89030 -72.62798 37967 ft 453 kts 324°
2026-05-05 20:11 14.94283 -72.66393 37913 ft 455 kts 323°
2026-05-05 20:12 14.99555 -72.70004 37926 ft 455 kts 323°
2026-05-05 20:12 15.04854 -72.73634 37937 ft 454 kts 323°
2026-05-05 20:13 15.10126 -72.77249 37942 ft 454 kts 323°
2026-05-05 20:13 15.15386 -72.80858 37942 ft 454 kts 323°
2026-05-05 20:14 15.20627 -72.84456 37937 ft 453 kts 323°
2026-05-05 20:14 15.25881 -72.88065 37936 ft 453 kts 323°
2026-05-05 20:15 15.31134 -72.91676 37937 ft 453 kts 323°
2026-05-05 20:15 15.36405 -72.95300 37939 ft 453 kts 323°
2026-05-05 20:16 15.41642 -72.98903 37940 ft 452 kts 323°
2026-05-05 20:16 15.46909 -73.02530 37937 ft 453 kts 323°
2026-05-05 20:17 15.52142 -73.06136 37934 ft 452 kts 323°
2026-05-05 20:17 15.57380 -73.09744 37933 ft 452 kts 323°
2026-05-05 20:18 15.62633 -73.13355 37935 ft 451 kts 323°
2026-05-05 20:18 15.67879 -73.16964 37936 ft 452 kts 323°
2026-05-05 20:19 15.73107 -73.20564 37937 ft 452 kts 323°
2026-05-05 20:19 15.78354 -73.24179 37939 ft 452 kts 323°
2026-05-05 20:20 15.83580 -73.27782 37940 ft 451 kts 323°
2026-05-05 20:20 15.88798 -73.31381 37941 ft 451 kts 323°
2026-05-05 20:21 15.94049 -73.35006 37942 ft 450 kts 323°
2026-05-05 20:21 15.99253 -73.38601 37943 ft 451 kts 323°
2026-05-05 20:22 16.04493 -73.42223 37944 ft 451 kts 323°
2026-05-05 20:22 16.09699 -73.45824 37945 ft 450 kts 323°
2026-05-05 20:23 16.14901 -73.49425 37946 ft 449 kts 323°
2026-05-05 20:23 16.20123 -73.53041 37947 ft 449 kts 323°
2026-05-05 20:24 16.25337 -73.56654 37948 ft 449 kts 323°
2026-05-05 20:24 16.30543 -73.60265 37949 ft 449 kts 323°
2026-05-05 20:25 16.35728 -73.63863 37949 ft 449 kts 323°
2026-05-05 20:25 16.40930 -73.67451 37959 ft 449 kts 323°
2026-05-05 20:26 16.46134 -73.71035 37961 ft 449 kts 323°
2026-05-05 20:26 16.51360 -73.74638 37962 ft 449 kts 323°
2026-05-05 20:27 16.56584 -73.78243 37961 ft 449 kts 323°
2026-05-05 20:27 16.61788 -73.81835 37962 ft 449 kts 323°
2026-05-05 20:28 16.67011 -73.85443 37962 ft 449 kts 323°
2026-05-05 20:28 16.72199 -73.89030 37963 ft 449 kts 323°
2026-05-05 20:29 16.77426 -73.92646 37963 ft 449 kts 323°
2026-05-05 20:29 16.82610 -73.96235 37964 ft 449 kts 323°
2026-05-05 20:30 16.87831 -73.99852 37964 ft 448 kts 323°
2026-05-05 20:30 16.93006 -74.03440 37964 ft 449 kts 323°
2026-05-05 20:31 16.98224 -74.07059 37966 ft 449 kts 323°
2026-05-05 20:31 17.03400 -74.10652 37967 ft 448 kts 323°
2026-05-05 20:32 17.08604 -74.14267 37965 ft 447 kts 323°
2026-05-05 20:32 17.13824 -74.17896 37966 ft 447 kts 323°
2026-05-05 20:33 17.18988 -74.21487 37966 ft 447 kts 323°
2026-05-05 20:33 17.24160 -74.25088 37967 ft 447 kts 323°
2026-05-05 20:34 17.29373 -74.28719 37967 ft 447 kts 323°
2026-05-05 20:34 17.34551 -74.32329 37967 ft 447 kts 323°
2026-05-05 20:35 17.39726 -74.35938 37967 ft 447 kts 323°
2026-05-05 20:35 17.44883 -74.39536 37966 ft 447 kts 323°
2026-05-05 20:36 17.50070 -74.43160 37966 ft 447 kts 323°
2026-05-05 20:36 17.55245 -74.46777 37966 ft 447 kts 323°
2026-05-05 20:37 17.60408 -74.50388 37966 ft 447 kts 323°
2026-05-05 20:37 17.65595 -74.54018 37965 ft 447 kts 323°
2026-05-05 20:38 17.70756 -74.57632 37965 ft 447 kts 323°
2026-05-05 20:38 17.75924 -74.61255 37965 ft 447 kts 323°
2026-05-05 20:39 17.81111 -74.64893 37965 ft 447 kts 323°
2026-05-05 20:39 17.86292 -74.68530 37973 ft 446 kts 323°
2026-05-05 20:40 17.91464 -74.72163 37974 ft 446 kts 323°
2026-05-05 20:40 17.96621 -74.75788 37988 ft 446 kts 323°
2026-05-05 20:41 18.01774 -74.79413 38005 ft 446 kts 323°
2026-05-05 20:41 18.06931 -74.83043 38005 ft 445 kts 323°
2026-05-05 20:42 18.12098 -74.86682 38000 ft 445 kts 323°
2026-05-05 20:42 18.17262 -74.90323 37998 ft 444 kts 323°
2026-05-05 20:43 18.22384 -74.93935 37999 ft 444 kts 323°
2026-05-05 20:43 18.27526 -74.97566 38000 ft 444 kts 323°
2026-05-05 20:44 18.32638 -75.01177 38000 ft 444 kts 323°
2026-05-05 20:44 18.37759 -75.04797 38002 ft 443 kts 323°
2026-05-05 20:45 18.45458 -75.10246 38005 ft 443 kts 323°
2026-05-05 20:45 18.50555 -75.13856 38005 ft 443 kts 324°
2026-05-05 20:46 18.55696 -75.17499 38005 ft 442 kts 324°
2026-05-05 20:46 18.60670 -75.21268 38004 ft 442 kts 321°
2026-05-05 20:47 18.65617 -75.25142 38004 ft 441 kts 321°
2026-05-05 20:47 18.70533 -75.28979 38006 ft 441 kts 321°
2026-05-05 20:48 18.75480 -75.32836 38008 ft 441 kts 321°
2026-05-05 20:48 18.80432 -75.36697 38008 ft 440 kts 321°
2026-05-05 20:49 18.85335 -75.40519 38008 ft 440 kts 321°
2026-05-05 20:49 18.90276 -75.44373 38008 ft 440 kts 322°
2026-05-05 20:50 18.95182 -75.48201 38008 ft 440 kts 322°
2026-05-05 20:50 19.00115 -75.52054 38009 ft 439 kts 322°
2026-05-05 20:51 19.05009 -75.55880 38009 ft 438 kts 322°
2026-05-05 20:51 19.09926 -75.59725 38009 ft 438 kts 322°
2026-05-05 20:52 19.14822 -75.63558 38014 ft 437 kts 322°
2026-05-05 20:52 19.19742 -75.67412 38022 ft 437 kts 321°
2026-05-05 20:53 19.24626 -75.71240 38022 ft 436 kts 321°
2026-05-05 20:53 19.29487 -75.75054 38017 ft 435 kts 321°
2026-05-05 20:54 19.34361 -75.78883 38013 ft 435 kts 321°
2026-05-05 20:54 19.39201 -75.82687 38012 ft 434 kts 321°
2026-05-05 20:55 19.44065 -75.86510 38013 ft 434 kts 321°
2026-05-05 20:55 19.48887 -75.90304 38013 ft 433 kts 321°
2026-05-05 20:56 19.53728 -75.94115 38011 ft 433 kts 321°
2026-05-05 20:56 19.58572 -75.97933 38008 ft 432 kts 321°
2026-05-05 20:57 19.63371 -76.01719 38006 ft 432 kts 321°
2026-05-05 20:57 19.68197 -76.05530 38006 ft 431 kts 321°
2026-05-05 20:58 19.73019 -76.09339 38007 ft 431 kts 321°
2026-05-05 20:58 19.77830 -76.13145 38007 ft 431 kts 321°
2026-05-05 20:59 19.82621 -76.16936 38008 ft 430 kts 321°
2026-05-05 20:59 19.87407 -76.20727 38009 ft 430 kts 321°
2026-05-05 21:00 19.92228 -76.24548 38008 ft 430 kts 321°
2026-05-05 21:00 19.96990 -76.28329 38013 ft 430 kts 321°
2026-05-05 21:01 20.01797 -76.32144 38029 ft 430 kts 321°
2026-05-05 21:01 20.06603 -76.35963 38042 ft 430 kts 321°
2026-05-05 21:02 20.11392 -76.39770 38058 ft 429 kts 321°
2026-05-05 21:02 20.16156 -76.43560 38061 ft 429 kts 321°
2026-05-05 21:03 20.20952 -76.47379 38053 ft 428 kts 321°
2026-05-05 21:03 20.25701 -76.51166 38044 ft 428 kts 321°
2026-05-05 21:04 20.30483 -76.54980 38031 ft 427 kts 321°
2026-05-05 21:04 20.35228 -76.58767 38021 ft 427 kts 321°
2026-05-05 21:05 20.39989 -76.62570 38012 ft 426 kts 321°
2026-05-05 21:05 20.44734 -76.66356 38011 ft 426 kts 321°
2026-05-05 21:06 20.49468 -76.70130 38007 ft 426 kts 321°
2026-05-05 21:06 20.54204 -76.73908 38004 ft 425 kts 321°
2026-05-05 21:07 20.58955 -76.77703 38002 ft 425 kts 321°
2026-05-05 21:07 20.63687 -76.81486 38001 ft 424 kts 321°
2026-05-05 21:08 20.68424 -76.85275 38000 ft 424 kts 321°
2026-05-05 21:08 20.73158 -76.89065 37999 ft 424 kts 321°
2026-05-05 21:09 20.77888 -76.92855 37998 ft 423 kts 321°
2026-05-05 21:09 20.82587 -76.96622 37996 ft 423 kts 321°
2026-05-05 21:10 20.87301 -77.00406 37995 ft 422 kts 321°
2026-05-05 21:10 20.92000 -77.04179 37996 ft 422 kts 321°
2026-05-05 21:11 20.96716 -77.07970 38004 ft 422 kts 322°
2026-05-05 21:11 21.01396 -77.11735 38005 ft 421 kts 322°
2026-05-05 21:12 21.06068 -77.15496 37995 ft 421 kts 322°
2026-05-05 21:12 21.10770 -77.19283 37997 ft 421 kts 322°
2026-05-05 21:13 21.15499 -77.23096 38006 ft 421 kts 322°
2026-05-05 21:13 21.20164 -77.26862 38007 ft 420 kts 322°
2026-05-05 21:14 21.24857 -77.30652 38008 ft 420 kts 322°
2026-05-05 21:14 21.29517 -77.34418 38009 ft 419 kts 322°
2026-05-05 21:15 21.34156 -77.38172 38008 ft 419 kts 322°
2026-05-05 21:15 21.38833 -77.41959 38007 ft 419 kts 322°
2026-05-05 21:16 21.43484 -77.45734 38006 ft 419 kts 322°
2026-05-05 21:16 21.48114 -77.49497 38006 ft 419 kts 322°
2026-05-05 21:17 21.52769 -77.53284 38006 ft 418 kts 322°
2026-05-05 21:17 21.57396 -77.57052 38006 ft 418 kts 322°
2026-05-05 21:18 21.62018 -77.60818 38006 ft 418 kts 322°
2026-05-05 21:18 21.66668 -77.64610 38005 ft 418 kts 322°
2026-05-05 21:19 21.71292 -77.68385 38012 ft 417 kts 322°
2026-05-05 21:19 21.75906 -77.72154 38011 ft 417 kts 322°
2026-05-05 21:20 21.80532 -77.75935 38010 ft 417 kts 322°
2026-05-05 21:20 21.85128 -77.79695 38009 ft 416 kts 322°
2026-05-05 21:21 21.89734 -77.83466 38006 ft 416 kts 322°
2026-05-05 21:21 21.94336 -77.87260 38005 ft 415 kts 322°
2026-05-05 21:22 21.98907 -77.91039 38003 ft 415 kts 322°
2026-05-05 21:22 22.03505 -77.94843 38002 ft 415 kts 322°
2026-05-05 21:23 22.08082 -77.98630 38005 ft 415 kts 322°
2026-05-05 21:23 22.12691 -78.02449 38023 ft 416 kts 322°
2026-05-05 21:24 22.17263 -78.06239 38029 ft 416 kts 322°
2026-05-05 21:24 22.21829 -78.10027 38028 ft 415 kts 322°
2026-05-05 21:25 22.26411 -78.13831 38025 ft 415 kts 322°
2026-05-05 21:25 22.30995 -78.17640 38023 ft 415 kts 322°
2026-05-05 21:26 22.35583 -78.21457 38022 ft 415 kts 322°
2026-05-05 21:26 22.40170 -78.25276 38021 ft 414 kts 322°
2026-05-05 21:27 22.44726 -78.29072 38020 ft 414 kts 322°
2026-05-05 21:27 22.49271 -78.32862 38019 ft 413 kts 322°
2026-05-05 21:28 22.53823 -78.36655 38018 ft 413 kts 322°
2026-05-05 21:28 22.58389 -78.40443 38017 ft 413 kts 322°
2026-05-05 21:29 22.62965 -78.44245 38017 ft 413 kts 322°
2026-05-05 21:29 22.67495 -78.48011 38018 ft 412 kts 322°
2026-05-05 21:30 22.72058 -78.51808 38018 ft 412 kts 322°
2026-05-05 21:30 22.76793 -78.55244 38014 ft 412 kts 332°
2026-05-05 21:31 22.82244 -78.57268 38012 ft 417 kts 346°
2026-05-05 21:31 22.87970 -78.58357 38015 ft 417 kts 347°
2026-05-05 21:32 22.93670 -78.59423 38014 ft 416 kts 347°
2026-05-05 21:32 22.99413 -78.60501 38013 ft 416 kts 347°
2026-05-05 21:33 23.05104 -78.61571 38012 ft 415 kts 347°
2026-05-05 21:33 23.10791 -78.62643 38014 ft 415 kts 347°
2026-05-05 21:34 23.16492 -78.63718 38024 ft 414 kts 347°
2026-05-05 21:34 23.22154 -78.64786 38022 ft 413 kts 346°
2026-05-05 21:35 23.27847 -78.65863 38030 ft 412 kts 346°
2026-05-05 21:35 23.33510 -78.66934 38030 ft 412 kts 346°
2026-05-05 21:36 23.39178 -78.68008 38029 ft 412 kts 346°
2026-05-05 21:36 23.44841 -78.69081 38027 ft 411 kts 346°
2026-05-05 21:37 23.50468 -78.70149 38025 ft 411 kts 346°
2026-05-05 21:37 23.56137 -78.71224 38024 ft 411 kts 346°
2026-05-05 21:38 23.61768 -78.72294 38023 ft 411 kts 346°
2026-05-05 21:38 23.67393 -78.73364 38022 ft 410 kts 346°
2026-05-05 21:39 23.73049 -78.74441 38021 ft 410 kts 346°
2026-05-05 21:39 23.78667 -78.75511 38019 ft 410 kts 346°
2026-05-05 21:40 23.84318 -78.76588 38018 ft 410 kts 346°
2026-05-05 21:40 23.89926 -78.77659 38017 ft 409 kts 346°
2026-05-05 21:41 23.95543 -78.78732 38016 ft 409 kts 346°
2026-05-05 21:41 24.00957 -78.80446 38011 ft 404 kts 333°
2026-05-05 21:42 24.05832 -78.83431 38017 ft 401 kts 327°
2026-05-05 21:42 24.10607 -78.86588 38020 ft 399 kts 327°
2026-05-05 21:43 24.15372 -78.89741 38025 ft 398 kts 327°
2026-05-05 21:43 24.20157 -78.92909 38024 ft 398 kts 327°
2026-05-05 21:44 24.24892 -78.96046 38024 ft 398 kts 327°
2026-05-05 21:44 24.29616 -78.99179 38022 ft 398 kts 327°
2026-05-05 21:45 24.34361 -79.02329 37992 ft 395 kts 327°
2026-05-05 21:45 24.36690 -79.03876 37545 ft 395 kts 327°
2026-05-05 21:45 24.39065 -79.05454 37030 ft 395 kts 327°
2026-05-05 21:46 24.41379 -79.06993 36382 ft 396 kts 327°
2026-05-05 21:46 24.43731 -79.08558 35709 ft 396 kts 327°
2026-05-05 21:46 24.46110 -79.10141 35033 ft 397 kts 327°
2026-05-05 21:46 24.48453 -79.11701 34375 ft 396 kts 327°
2026-05-05 21:47 24.50795 -79.13261 33606 ft 396 kts 327°
2026-05-05 21:47 24.53137 -79.14821 32870 ft 393 kts 327°
2026-05-05 21:47 24.55486 -79.16386 32177 ft 390 kts 327°
2026-05-05 21:47 24.57788 -79.17922 31517 ft 387 kts 327°
2026-05-05 21:48 24.60088 -79.19456 30878 ft 392 kts 327°
2026-05-05 21:48 24.62444 -79.21030 30418 ft 405 kts 327°
2026-05-05 21:48 24.64890 -79.22664 29980 ft 410 kts 327°
2026-05-05 21:48 24.67314 -79.24283 29526 ft 411 kts 326°
2026-05-05 21:49 24.69750 -79.25911 29096 ft 410 kts 326°
2026-05-05 21:49 24.72207 -79.27553 28655 ft 409 kts 326°
2026-05-05 21:49 24.74626 -79.29171 28206 ft 408 kts 326°
2026-05-05 21:49 24.77043 -79.30788 27739 ft 407 kts 326°
2026-05-05 21:50 24.79451 -79.32401 27242 ft 405 kts 326°
2026-05-05 21:50 24.81843 -79.34003 26752 ft 402 kts 326°
2026-05-05 21:50 24.84219 -79.35596 26270 ft 399 kts 326°
2026-05-05 21:50 24.86577 -79.37176 25788 ft 396 kts 325°
2026-05-05 21:51 24.88922 -79.38750 25295 ft 394 kts 325°
2026-05-05 21:51 24.91274 -79.40328 24804 ft 392 kts 325°
2026-05-05 21:51 24.93593 -79.41885 24321 ft 390 kts 325°
2026-05-05 21:51 24.95889 -79.43429 23827 ft 388 kts 325°
2026-05-05 21:52 25.00490 -79.46521 22852 ft 383 kts 325°
2026-05-05 21:52 25.02751 -79.48041 22367 ft 381 kts 325°
2026-05-05 21:52 25.04997 -79.49553 21885 ft 378 kts 325°
2026-05-05 21:53 25.07233 -79.51059 21452 ft 375 kts 325°
2026-05-05 21:53 25.09422 -79.52531 21285 ft 361 kts 325°
2026-05-05 21:53 25.11538 -79.53956 21041 ft 351 kts 325°
2026-05-05 21:53 25.13606 -79.55351 20596 ft 348 kts 325°
2026-05-05 21:54 25.15660 -79.56737 20157 ft 346 kts 325°
2026-05-05 21:54 25.17705 -79.58117 19719 ft 343 kts 325°
2026-05-05 21:54 25.19731 -79.59486 19280 ft 341 kts 325°
2026-05-05 21:54 25.21747 -79.60847 18841 ft 339 kts 325°
2026-05-05 21:55 25.23747 -79.62197 18396 ft 337 kts 326°
2026-05-05 21:55 25.25763 -79.63560 17953 ft 334 kts 326°
2026-05-05 21:55 25.27737 -79.64895 17519 ft 332 kts 326°
2026-05-05 21:55 25.29680 -79.66208 17101 ft 330 kts 326°
2026-05-05 21:56 25.31629 -79.67527 16675 ft 328 kts 326°
2026-05-05 21:56 25.33567 -79.68838 16241 ft 326 kts 326°
2026-05-05 21:56 25.35494 -79.70143 15811 ft 324 kts 326°
2026-05-05 21:56 25.37430 -79.71459 15376 ft 322 kts 324°
2026-05-05 21:57 25.39119 -79.73034 14947 ft 317 kts 310°
2026-05-05 21:57 25.40455 -79.74941 14537 ft 314 kts 305°
2026-05-05 21:57 25.41728 -79.76894 14125 ft 312 kts 304°
2026-05-05 21:57 25.42981 -79.78838 13716 ft 311 kts 304°
2026-05-05 21:58 25.44226 -79.80775 13307 ft 310 kts 304°
2026-05-05 21:58 25.45505 -79.82770 12888 ft 321 kts 304°
2026-05-05 21:58 25.46795 -79.84782 12455 ft 321 kts 303°
2026-05-05 21:58 25.48073 -79.86776 12031 ft 319 kts 303°
2026-05-05 21:59 25.49348 -79.88763 11725 ft 314 kts 303°
2026-05-05 21:59 25.50616 -79.90744 11558 ft 317 kts 303°
2026-05-05 21:59 25.51894 -79.92743 11366 ft 317 kts 303°
2026-05-05 21:59 25.53166 -79.94725 11160 ft 317 kts 303°
2026-05-05 22:00 25.54439 -79.96712 10951 ft 310 kts 303°
2026-05-05 22:00 25.55658 -79.98621 10748 ft 301 kts 303°
2026-05-05 22:00 25.56860 -80.00503 10549 ft 293 kts 303°
2026-05-05 22:00 25.58012 -80.02305 10357 ft 286 kts 303°
2026-05-05 22:01 25.59158 -80.04098 10165 ft 279 kts 302°
2026-05-05 22:01 25.60257 -80.05821 9982 ft 272 kts 302°
2026-05-05 22:01 25.61341 -80.07519 9782 ft 268 kts 302°
2026-05-05 22:01 25.62425 -80.09222 9573 ft 268 kts 302°
2026-05-05 22:02 25.63499 -80.10892 9371 ft 267 kts 303°
2026-05-05 22:02 25.64592 -80.12585 9162 ft 268 kts 303°
2026-05-05 22:02 25.65599 -80.14287 8956 ft 266 kts 296°
2026-05-05 22:02 25.66409 -80.16149 8723 ft 266 kts 292°
2026-05-05 22:03 25.67156 -80.18010 8470 ft 265 kts 292°
2026-05-05 22:03 25.67946 -80.19849 8225 ft 264 kts 293°
2026-05-05 22:03 25.68746 -80.21698 7978 ft 264 kts 292°
2026-05-05 22:03 25.69525 -80.23546 7708 ft 264 kts 293°
2026-05-05 22:04 25.70305 -80.25398 7411 ft 264 kts 293°
2026-05-05 22:04 25.71007 -80.27267 7111 ft 260 kts 281°
2026-05-05 22:04 25.71149 -80.29229 6848 ft 258 kts 268°
2026-05-05 22:04 25.71089 -80.31223 6602 ft 259 kts 266°
2026-05-05 22:05 25.70997 -80.33202 6347 ft 257 kts 266°
2026-05-05 22:05 25.70902 -80.35191 6093 ft 256 kts 266°
2026-05-05 22:05 25.70808 -80.37147 5843 ft 255 kts 266°
2026-05-05 22:05 25.70713 -80.39112 5592 ft 255 kts 266°
2026-05-05 22:06 25.70632 -80.41087 5326 ft 253 kts 266°
2026-05-05 22:06 25.70534 -80.43040 5076 ft 252 kts 267°
2026-05-05 22:06 25.70404 -80.44968 4874 ft 249 kts 264°
2026-05-05 22:06 25.70232 -80.46892 4831 ft 251 kts 265°
2026-05-05 22:07 25.70078 -80.48801 4642 ft 249 kts 264°
2026-05-05 22:07 25.69907 -80.50724 4157 ft 250 kts 265°
2026-05-05 22:07 25.70032 -80.52625 3688 ft 250 kts 288°
2026-05-05 22:07 25.70916 -80.54264 3220 ft 250 kts 315°
2026-05-05 22:08 25.72393 -80.55239 3029 ft 251 kts 343°
2026-05-05 22:08 25.74145 -80.55331 3005 ft 254 kts 12°
2026-05-05 22:08 25.75696 -80.54528 2999 ft 242 kts 40°
2026-05-05 22:08 25.76694 -80.53105 3001 ft 229 kts 67°
2026-05-05 22:09 25.77153 -80.51447 2997 ft 220 kts 76°
2026-05-05 22:09 25.77514 -80.49845 2989 ft 208 kts 76°
2026-05-05 22:09 25.77844 -80.48305 2991 ft 198 kts 81°
2026-05-05 22:09 25.77972 -80.46803 2870 ft 200 kts 87°
2026-05-05 22:10 25.78036 -80.45229 2545 ft 204 kts 88°
2026-05-05 22:10 25.78100 -80.43652 2242 ft 207 kts 87°
2026-05-05 22:10 25.78168 -80.42060 1964 ft 209 kts 86°
2026-05-05 22:10 25.78264 -80.40469 1680 ft 203 kts 87°
2026-05-05 22:11 25.78318 -80.38931 1412 ft 194 kts 88°
2026-05-05 22:11 25.78375 -80.37454 1158 ft 187 kts 88°
2026-05-05 22:11 25.78426 -80.36069 921 ft 175 kts 89°
2026-05-05 22:11 25.78480 -80.34780 715 ft 161 kts 89°
2026-05-05 22:12 25.78523 -80.33582 493 ft 151 kts 89°
2026-05-05 22:12 25.78574 -80.32420 288 ft 148 kts 89°
2026-05-05 22:12 25.78615 -80.31322 77 ft 140 kts 88°
2026-05-05 22:12 25.78663 -80.30286 21 ft 123 kts 87°
2026-05-05 22:13 25.78693 -80.29483 20 ft 82 kts 86°
2026-05-05 22:13 25.78713 -80.29022 20 ft 35 kts 88°
2026-05-05 22:13 25.78721 -80.28786 20 ft 26 kts 84°
2026-05-05 22:13 25.78741 -80.28597 20 ft 23 kts 83°
2026-05-05 22:14 25.78809 -80.28448 20 ft 21 kts 48°
2026-05-05 22:14 25.78898 -80.28327 20 ft 19 kts 52°
2026-05-05 22:14 25.78969 -80.28212 20 ft 10 kts 70°
2026-05-05 22:14 25.78958 -80.28109 20 ft 20 kts 115°
2026-05-05 22:15 25.78877 -80.27947 20 ft 23 kts 116°
2026-05-05 22:15 25.78869 -80.27800 20 ft 15 kts 82°
2026-05-05 22:15 25.78881 -80.27688 20 ft 14 kts 84°
2026-05-05 22:15 25.78896 -80.27581 20 ft 15 kts 77°
2026-05-05 22:16 25.78935 -80.27480 20 ft 10 kts 51°
2026-05-05 22:16 25.78966 -80.27440 20 ft 5 kts 47°
2026-05-05 22:16 25.78994 -80.27408 20 ft 4 kts 47°
2026-05-05 22:16 25.79003 -80.27397 20 ft 0 kts 47°